FW9022 Weather Reports


Display with metric or nautical units.
time (UTC)temp
F
wind
direction
speed
MPH
gust
MPH
rain 1hr
in
rain 24hr
in
rain mn
in
humidity
%
barometer
mb
20260904173822 90 42 0.0 3.0 0.00 0.00 0.00 58 1019.8
20260904172836 90 56 1.0 5.0 0.00 0.00 0.00 59 1020.2
20260904171851 89 10 3.0 6.0 0.00 0.00 0.00 60 1020.2
20260904170839 90 328 1.0 2.0 0.00 0.00 0.00 64 1020.2
20260904165818 89 32 1.0 4.0 0.00 0.00 0.00 62 1020.3
20260904164832 89 355 1.0 5.0 0.00 0.00 0.00 62 1020.3
20260904163826 89 17 0.0 3.0 0.00 0.00 0.00 64 1020.5
20260904162824 88 17 1.0 5.0 0.00 0.00 0.00 64 1020.8
20260904161818 88 13 3.0 4.0 0.00 0.00 0.00 64 1020.8
20260904160902 88 360 0.0 4.0 0.00 0.00 0.00 65 1020.7
20260904155838 89 93 1.0 2.0 0.00 0.00 0.00 66 1020.7
20260904154835 88 254 0.0 2.0 0.00 0.00 0.00 67 1020.7
20260904153828 88 134 0.0 3.0 0.00 0.00 0.00 67 1020.9
20260904152823 87 227 0.0 3.0 0.00 0.00 0.00 69 1020.9
20260904151841 86 168 0.0 1.0 0.00 0.00 0.00 72 1020.9
20260904150845 86 168 0.0 4.0 0.00 0.00 0.00 71 1021.0
20260904145824 85 133 1.0 3.0 0.00 0.00 0.00 70 1021.0
20260904144837 85 160 0.0 3.0 0.00 0.00 0.00 74 1021.0
20260904143835 84 205 0.0 3.0 0.00 0.00 0.00 74 1021.0
20260904142829 83 137 1.0 3.0 0.00 0.00 0.00 75 1020.2
20260904141843 82 137 0.0 0.0 0.00 0.00 0.00 78 1020.2
20260904140846 81 137 0.0 0.0 0.00 0.00 0.00 80 1020.4
20260904135829 80 138 0.0 0.0 0.00 0.00 0.00 82 1020.3
20260904134823 79 138 0.0 2.0 0.00 0.00 0.00 82 1020.3
20260904133837 78 138 0.0 0.0 0.00 0.00 0.00 86 1020.4
20260904132836 77 138 0.0 1.0 0.00 0.00 0.00 87 1020.7
20260904131849 75 138 0.0 2.0 0.00 0.00 0.00 90 1020.7
20260904130913 73 137 0.0 1.0 0.00 0.00 0.00 94 1020.8
20260904125831 71 138 0.0 1.0 0.00 0.00 0.00 98 1020.1
20260904124828 69 138 0.0 0.0 0.00 0.00 0.00 99 1020.1
20260904123822 68 138 0.0 0.0 0.00 0.00 0.00 98 1020.3
20260904122836 67 138 0.0 0.0 0.00 0.00 0.00 98 1020.2
20260904121830 66 138 0.0 0.0 0.00 0.00 0.00 98 1020.2
20260904120837 66 138 0.0 0.0 0.00 0.00 0.00 98 1020.9
20260904115835 66 138 0.0 0.0 0.00 0.00 0.00 98 1020.1
20260904114829 65 138 0.0 0.0 0.00 0.00 0.00 98 1020.1
20260904113827 65 137 0.0 0.0 0.00 0.00 0.00 97 1019.9
20260904112822 65 137 0.0 0.0 0.00 0.00 0.00 98 1019.6
20260904111835 65 138 0.0 0.0 0.00 0.00 0.00 98 1019.6
20260904110859 65 138 0.0 0.0 0.00 0.00 0.00 97 1019.9
20260904105841 66 137 0.0 0.0 0.00 0.00 0.00 97 1019.7
20260904104834 66 138 0.0 0.0 0.00 0.00 0.00 97 1019.7
20260904103828 66 138 0.0 0.0 0.00 0.00 0.00 97 1019.4
20260904102842 66 138 0.0 0.0 0.00 0.00 0.00 98 1019.4
20260904101838 66 138 0.0 0.0 0.00 0.00 0.00 97 1019.4
20260904100841 66 138 0.0 0.0 0.00 0.00 0.00 97 1019.3
20260904095820 66 138 0.0 0.0 0.00 0.00 0.00 97 1019.1
20260904094833 67 138 0.0 0.0 0.00 0.00 0.00 97 1019.1
20260904093832 66 138 0.0 0.0 0.00 0.00 0.00 97 1019.4
20260904092825 66 138 0.0 0.0 0.00 0.00 0.00 97 1019.1
20260904091900 67 138 0.0 1.0 0.00 0.00 0.00 97 1019.1
20260904090843 67 138 0.0 0.0 0.00 0.00 0.00 97 1019.0
20260904085826 67 137 0.0 0.0 0.00 0.00 0.00 97 1019.0
20260904084840 67 138 0.0 0.0 0.00 0.00 0.00 97 1019.0
20260904083832 67 138 0.0 0.0 0.00 0.00 0.00 97 1018.9
20260904082826 67 138 0.0 0.0 0.00 0.00 0.00 97 1018.8
20260904081823 67 138 0.0 0.0 0.00 0.00 0.00 97 1018.8
20260904080848 67 137 0.0 0.0 0.00 0.00 0.00 97 1018.8
20260904075824 68 138 0.0 0.0 0.00 0.00 0.00 97 1018.6
20260904074843 68 138 0.0 0.0 0.00 0.00 0.00 97 1018.6
20260904073834 68 138 0.0 0.0 0.00 0.00 0.00 97 1018.7
20260904072848 68 138 0.0 0.0 0.00 0.00 0.00 97 1018.6
20260904071820 68 137 0.0 0.0 0.00 0.00 0.00 97 1018.6
20260904070848 68 138 0.0 0.0 0.00 0.00 0.00 96 1019.6
20260904065826 68 138 0.0 0.0 0.00 0.00 0.00 96 1019.8
20260904064839 68 138 0.0 0.0 0.00 0.00 0.00 96 1019.8
20260904063831 69 137 0.0 0.0 0.00 0.00 0.00 97 1019.8
20260904062829 69 138 0.0 0.0 0.00 0.00 0.00 96 1020.2
20260904061822 69 137 0.0 0.0 0.00 0.00 0.00 96 1020.2
20260904060847 69 137 0.0 0.0 0.00 0.00 0.00 96 1020.3
20260904055825 69 138 0.0 0.0 0.00 0.00 0.00 96 1020.4
20260904054823 69 138 0.0 0.0 0.00 0.00 0.00 96 1020.4
20260904053836 69 138 0.0 0.0 0.00 0.00 0.00 96 1020.4
20260904052829 70 137 0.0 0.0 0.00 0.00 0.00 96 1020.5
20260904051828 70 138 0.0 0.0 0.00 0.00 0.00 96 1020.5
20260904050832 70 138 0.0 0.0 0.00 0.00 0.00 96 1020.6
20260904045831 70 138 0.0 0.0 0.00 0.00 0.00 96 1020.8
20260904044825 70 138 0.0 0.0 0.00 0.00 0.00 96 1020.8
20260904043843 70 137 0.0 0.0 0.00 0.00 0.00 95 1020.7
20260904042856 70 138 0.0 0.0 0.00 0.00 0.00 95 1020.8
20260904041829 71 138 0.0 0.0 0.00 0.00 0.00 95 1020.8
20260904040834 71 138 0.0 0.0 0.00 0.00 0.00 95 1020.9
20260904035837 71 138 0.0 0.0 0.00 0.00 0.00 95 1020.8
20260904034830 71 138 0.0 0.0 0.00 0.00 0.00 95 1020.8
20260904033824 71 137 0.0 0.0 0.00 0.00 0.00 95 1020.8
20260904032822 71 137 0.0 0.0 0.00 0.00 0.00 95 1020.8
20260904031836 72 138 0.0 0.0 0.00 0.00 0.00 95 1020.8
20260904030840 72 138 0.0 0.0 0.00 0.00 0.00 94 1020.3
20260904025819 72 137 0.0 0.0 0.00 0.00 0.00 94 1020.4
20260904024858 72 138 0.0 0.0 0.00 0.00 0.00 94 1020.4
20260904023830 72 137 0.0 0.0 0.00 0.00 0.00 94 1021.4
20260904022825 73 137 0.0 0.0 0.00 0.00 0.00 93 1021.5
20260904021823 73 138 0.0 0.0 0.00 0.00 0.00 93 1021.5
20260904020847 73 137 0.0 0.0 0.00 0.00 0.00 93 1020.8
20260904015826 74 138 0.0 0.0 0.00 0.00 0.00 93 1020.3
20260904014821 74 138 0.0 0.0 0.00 0.00 0.00 92 1020.3
20260904013818 74 138 0.0 0.0 0.00 0.00 0.00 92 1020.2
20260904012852 75 138 0.0 0.0 0.00 0.00 0.00 91 1020.0
20260904011821 75 137 0.0 0.0 0.00 0.00 0.00 90 1020.0
20260904010842 76 138 0.0 0.0 0.00 0.00 0.00 90 1020.2
20260904005825 76 138 0.0 0.0 0.00 0.00 0.00 89 1019.9
20260904004819 77 137 0.0 0.0 0.00 0.00 0.00 88 1019.9
20260904003833 78 137 0.0 0.0 0.00 0.00 0.00 86 1019.5
20260904002831 78 138 0.0 0.0 0.00 0.00 0.00 85 1019.3
20260904001826 79 137 0.0 0.0 0.00 0.00 0.00 84 1019.3
20260904000851 80 137 0.0 0.0 0.00 0.00 0.00 83 1019.3
20260903235830 81 138 0.0 0.0 0.00 0.00 0.00 81 1019.1
20260903234828 81 138 0.0 0.0 0.00 0.00 0.00 78 1019.1
20260903233822 83 138 0.0 0.0 0.00 0.00 0.00 77 1018.9
20260903232835 84 138 0.0 0.0 0.00 0.00 0.00 75 1018.6
20260903231832 85 138 0.0 0.0 0.00 0.00 0.00 71 1018.6
20260903230836 87 138 0.0 1.0 0.00 0.00 0.00 64 1018.4
20260903225835 87 138 0.0 3.0 0.00 0.00 0.00 61 1018.3
20260903224830 88 136 0.0 5.0 0.00 0.00 0.00 61 1018.3
20260903223827 88 150 0.0 5.0 0.00 0.00 0.00 59 1018.7
20260903222822 88 113 1.0 5.0 0.00 0.00 0.00 59 1018.5
20260903221835 89 263 0.0 6.0 0.00 0.00 0.00 62 1018.5
20260903220842 89 210 0.0 7.0 0.00 0.00 0.00 61 1018.5
20260903215820 90 159 1.0 3.0 0.00 0.00 0.00 60 1019.3
20260903214853 90 205 1.0 4.0 0.00 0.00 0.00 59 1019.3
20260903213823 91 116 2.0 5.0 0.00 0.00 0.00 57 1019.2
20260903212821 92 117 4.0 7.0 0.00 0.00 0.00 56 1019.2
20260903211834 92 145 1.0 5.0 0.00 0.00 0.00 55 1019.2
20260903210838 92 191 2.0 5.0 0.00 0.00 0.00 53 1019.2
20260903205819 92 191 1.0 9.0 0.00 0.00 0.00 55 1019.1
20260903204836 92 134 1.0 9.0 0.00 0.00 0.00 56 1019.1
20260903203850 92 132 2.0 6.0 0.00 0.00 0.00 55 1019.4
20260903202822 92 169 2.0 5.0 0.00 0.00 0.00 56 1019.6
20260903201820 92 264 2.0 5.0 0.00 0.00 0.00 55 1019.6
20260903200845 92 219 0.0 4.0 0.00 0.00 0.00 55 1019.7
20260903195824 91 130 0.0 5.0 0.00 0.00 0.00 57 1019.7
20260903194818 91 105 1.0 8.0 0.00 0.00 0.00 56 1019.7
20260903193855 93 132 4.0 9.0 0.00 0.00 0.00 54 1019.6
20260903192828 93 160 2.0 8.0 0.00 0.00 0.00 55 1019.7
20260903191823 93 259 1.0 6.0 0.00 0.00 0.00 56 1019.7
20260903190846 92 168 1.0 7.0 0.00 0.00 0.00 55 1019.8
20260903185829 92 118 2.0 4.0 0.00 0.00 0.00 55 1020.2
20260903184822 91 113 0.0 3.0 0.00 0.00 0.00 55 1020.2
20260903183837 92 214 0.0 7.0 0.00 0.00 0.00 55 1020.3
20260903182834 92 122 2.0 5.0 0.00 0.00 0.00 55 1020.3
20260903181848 92 140 0.0 8.0 0.00 0.00 0.00 54 1020.3
20260903180832 91 18 0.0 2.0 0.00 0.00 0.00 55 1020.5
20260903175831 91 18 1.0 4.0 0.00 0.00 0.00 56 1020.7
20260903174849 91 242 1.0 5.0 0.00 0.00 0.00 54 1020.7